• In Russia
  • List of Countries
  • For 7 days
  • Water Temperature
  • Weather Map
  • Weather Widgets
  • user-avatar
    Login

    Hourly Weather Tirana

    Today, 26 February, Wednesday

    Time Temperature Precipitation Wind Pressure Humidity
    00:00 +10°C° 0 mm 7 mps 750 mmHg 85%
    01:00 +10°C° 0 mm 6 mps 750 mmHg 85%
    02:00 +9°C° 0 mm 6 mps 749 mmHg 83%
    03:00 +9°C° 0 mm 6 mps 749 mmHg 81%
    04:00 +9°C° 0 mm 6 mps 748 mmHg 79%
    05:00 +9°C° 0 mm 6 mps 748 mmHg 78%
    06:00 +9°C° 0 mm 6 mps 747 mmHg 76%
    07:00 +9°C° 0 mm 6 mps 747 mmHg 75%
    08:00 +11°C° 0 mm 6 mps 747 mmHg 70%
    09:00 +14°C° 0 mm 7 mps 747 mmHg 65%
    10:00 +15°C° 0 mm 7 mps 746 mmHg 60%
    11:00 +16°C° 0 mm 9 mps 746 mmHg 58%
    12:00 +17°C° 0 mm 10 mps 745 mmHg 56%
    13:00 +17°C° 0 mm 12 mps 745 mmHg 55%
    14:00 +17°C° 0.1 mm 12 mps 744 mmHg 57%
    15:00 +16°C° 0.1 mm 11 mps 744 mmHg 60%
    16:00 +14°C° 0.1 mm 11 mps 743 mmHg 63%
    17:00 +13°C° 0.3 mm 11 mps 744 mmHg 69%
    18:00 +12°C° 0.3 mm 10 mps 744 mmHg 75%
    19:00 +11°C° 0.3 mm 10 mps 744 mmHg 81%
    20:00 +9°C° 0.3 mm 10 mps 745 mmHg 81%
    21:00 +10°C° 0.3 mm 9 mps 745 mmHg 81%
    22:00 +10°C° 0.3 mm 9 mps 745 mmHg 81%
    23:00 +9°C° 0.2 mm 10 mps 745 mmHg 78%

    Tomorrow, 27 February, Thursday

    Time Temperature Precipitation Wind Pressure Humidity
    00:00 +8°C° 0.2 mm 11 mps 745 mmHg 75%
    01:00 +8°C° 0.2 mm 11 mps 745 mmHg 72%
    02:00 +8°C° 0.4 mm 12 mps 744 mmHg 68%
    03:00 +7°C° 0.4 mm 13 mps 744 mmHg 65%
    04:00 +7°C° 0.4 mm 13 mps 743 mmHg 61%
    05:00 +7°C° 0.6 mm 11 mps 744 mmHg 66%
    06:00 +6°C° 0.6 mm 10 mps 745 mmHg 72%
    07:00 +6°C° 0.6 mm 8 mps 745 mmHg 77%
    08:00 +6°C° 0.6 mm 9 mps 746 mmHg 74%
    09:00 +7°C° 0.6 mm 9 mps 746 mmHg 71%
    10:00 +7°C° 0.6 mm 9 mps 747 mmHg 69%
    11:00 +8°C° 0.8 mm 9 mps 748 mmHg 70%
    12:00 +9°C° 0.8 mm 8 mps 748 mmHg 71%
    13:00 +9°C° 0.8 mm 8 mps 749 mmHg 73%
    14:00 +7°C° 0.4 mm 8 mps 749 mmHg 74%
    15:00 +7°C° 0.4 mm 8 mps 750 mmHg 75%
    16:00 +6°C° 0.4 mm 8 mps 750 mmHg 76%
    17:00 +5°C° 0 mm 6 mps 751 mmHg 77%
    18:00 +5°C° 0 mm 4 mps 752 mmHg 78%
    19:00 +5°C° 0 mm 3 mps 753 mmHg 79%
    20:00 +5°C° 0 mm 3 mps 753 mmHg 79%
    21:00 +4°C° 0 mm 3 mps 753 mmHg 78%
    22:00 +4°C° 0 mm 3 mps 754 mmHg 78%
    23:00 +4°C° 0 mm 3 mps 754 mmHg 78%

    Day after tomorrow, 28 February, Friday

    Time Temperature Precipitation Wind Pressure Humidity
    00:00 +4°C° 0 mm 3 mps 754 mmHg 78%
    01:00 +4°C° 0 mm 3 mps 754 mmHg 78%
    02:00 +4°C° 0 mm 4 mps 753 mmHg 77%
    03:00 +3°C° 0 mm 5 mps 753 mmHg 77%
    04:00 +3°C° 0 mm 5 mps 753 mmHg 76%
    05:00 +3°C° 0.5 mm 5 mps 753 mmHg 79%
    06:00 +3°C° 0.5 mm 6 mps 753 mmHg 82%
    07:00 +4°C° 0.5 mm 6 mps 752 mmHg 86%
    08:00 +4°C° 0.8 mm 7 mps 752 mmHg 87%
    09:00 +4°C° 0.8 mm 8 mps 752 mmHg 88%
    10:00 +4°C° 0.8 mm 8 mps 752 mmHg 89%
    11:00 +4°C° 0.2 mm 8 mps 752 mmHg 87%
    12:00 +5°C° 0.2 mm 7 mps 752 mmHg 85%
    13:00 +7°C° 0.2 mm 6 mps 752 mmHg 83%
    14:00 +7°C° 0.5 mm 6 mps 752 mmHg 85%
    15:00 +7°C° 0.5 mm 5 mps 752 mmHg 86%
    16:00 +7°C° 0.5 mm 5 mps 752 mmHg 87%
    17:00 +7°C° 0.3 mm 4 mps 753 mmHg 88%
    18:00 +8°C° 0.3 mm 3 mps 753 mmHg 89%
    19:00 +8°C° 0.3 mm 3 mps 754 mmHg 89%
    20:00 +8°C° 0 mm 2 mps 754 mmHg 89%
    21:00 +9°C° 0 mm 2 mps 755 mmHg 88%
    22:00 +9°C° 0 mm 2 mps 756 mmHg 87%
    23:00 +8°C° 0 mm 2 mps 756 mmHg 87%

    29 February, Saturday

    Time Temperature Precipitation Wind Pressure Humidity
    00:00 +8°C° 0 mm 2 mps 756 mmHg 87%
    01:00 +7°C° 0 mm 2 mps 756 mmHg 87%
    02:00 +7°C° 0 mm 2 mps 756 mmHg 87%
    03:00 +7°C° 0 mm 2 mps 756 mmHg 86%
    04:00 +7°C° 0 mm 2 mps 755 mmHg 86%
    05:00 +7°C° 0 mm 2 mps 755 mmHg 85%
    06:00 +7°C° 0 mm 2 mps 756 mmHg 84%
    07:00 +7°C° 0 mm 3 mps 756 mmHg 83%
    08:00 +9°C° 0 mm 3 mps 756 mmHg 77%
    09:00 +11°C° 0 mm 3 mps 756 mmHg 70%
    10:00 +13°C° 0 mm 3 mps 756 mmHg 63%
    11:00 +13°C° 0 mm 4 mps 756 mmHg 59%
    12:00 +14°C° 0 mm 4 mps 755 mmHg 55%
    13:00 +15°C° 0 mm 4 mps 755 mmHg 51%
    14:00 +15°C° 0 mm 4 mps 755 mmHg 55%
    15:00 +14°C° 0 mm 4 mps 754 mmHg 58%
    16:00 +14°C° 0 mm 4 mps 754 mmHg 62%
    17:00 +13°C° 0 mm 4 mps 754 mmHg 65%
    18:00 +12°C° 0 mm 5 mps 754 mmHg 69%
    19:00 +9°C° 0 mm 5 mps 754 mmHg 72%
    20:00 +10°C° 0 mm 5 mps 754 mmHg 70%
    21:00 +10°C° 0 mm 5 mps 754 mmHg 68%
    22:00 +10°C° 0 mm 5 mps 754 mmHg 66%
    23:00 +10°C° 0 mm 5 mps 754 mmHg 66%

    1 March, Sunday

    Time Temperature Precipitation Wind Pressure Humidity
    00:00 +10°C° 0 mm 5 mps 754 mmHg 65%
    01:00 +10°C° 0 mm 5 mps 753 mmHg 65%
    02:00 +9°C° 0 mm 5 mps 753 mmHg 66%
    03:00 +9°C° 0 mm 5 mps 753 mmHg 67%
    04:00 +9°C° 0 mm 6 mps 752 mmHg 69%
    05:00 +9°C° 0 mm 6 mps 752 mmHg 70%
    06:00 +9°C° 0 mm 6 mps 752 mmHg 71%
    07:00 +9°C° 0 mm 6 mps 752 mmHg 72%
    08:00 +11°C° 0 mm 6 mps 752 mmHg 68%
    09:00 +14°C° 0 mm 7 mps 752 mmHg 64%
    10:00 +16°C° 0 mm 8 mps 752 mmHg 61%
    11:00 +17°C° 0 mm 9 mps 752 mmHg 59%
    12:00 +17°C° 0 mm 10 mps 751 mmHg 57%
    13:00 +18°C° 0 mm 11 mps 750 mmHg 56%
    14:00 +18°C° 0 mm 11 mps 750 mmHg 59%
    15:00 +17°C° 0 mm 11 mps 750 mmHg 62%
    16:00 +17°C° 0 mm 11 mps 750 mmHg 65%
    17:00 +16°C° 0.2 mm 10 mps 750 mmHg 69%
    18:00 +13°C° 0.2 mm 10 mps 750 mmHg 74%
    19:00 +12°C° 0.2 mm 9 mps 750 mmHg 78%
    20:00 +12°C° 0.2 mm 8 mps 750 mmHg 78%
    21:00 +12°C° 0.2 mm 8 mps 750 mmHg 79%
    22:00 +12°C° 0.2 mm 8 mps 750 mmHg 79%
    23:00 +12°C° 0.2 mm 7 mps 750 mmHg 79%

    2 March, Monday

    Time Temperature Precipitation Wind Pressure Humidity
    00:00 +12°C° 0.2 mm 7 mps 750 mmHg 79%
    01:00 +11°C° 0.2 mm 7 mps 750 mmHg 79%
    02:00 +11°C° 0.3 mm 6 mps 750 mmHg 79%
    03:00 +13°C° 0.3 mm 6 mps 749 mmHg 79%
    04:00 +13°C° 0.3 mm 6 mps 749 mmHg 78%
    05:00 +13°C° 0.5 mm 6 mps 749 mmHg 80%
    06:00 +13°C° 0.5 mm 6 mps 749 mmHg 82%
    07:00 +11°C° 0.5 mm 6 mps 749 mmHg 84%
    08:00 +13°C° 0.8 mm 6 mps 749 mmHg 84%
    09:00 +13°C° 0.8 mm 6 mps 749 mmHg 85%
    10:00 +13°C° 0.8 mm 6 mps 749 mmHg 86%
    11:00 +15°C° 0.3 mm 7 mps 749 mmHg 79%
    12:00 +16°C° 0.3 mm 7 mps 749 mmHg 72%
    13:00 +18°C° 0.3 mm 7 mps 749 mmHg 65%
    14:00 +17°C° 0.2 mm 7 mps 749 mmHg 67%
    15:00 +17°C° 0.2 mm 8 mps 748 mmHg 70%
    16:00 +16°C° 0.2 mm 8 mps 748 mmHg 72%
    17:00 +15°C° 0 mm 8 mps 748 mmHg 76%
    18:00 +13°C° 0 mm 8 mps 748 mmHg 80%
    19:00 +12°C° 0 mm 8 mps 748 mmHg 84%
    20:00 +12°C° 0 mm 7 mps 748 mmHg 83%
    21:00 +12°C° 0 mm 7 mps 748 mmHg 83%
    22:00 +13°C° 0 mm 6 mps 749 mmHg 82%
    23:00 +12°C° 0.2 mm 7 mps 748 mmHg 81%
    Show more